Pocatello, ID

1:27 AM MDT on June 23, 2017 (GMT -0600)
Pocatello Regional

Weather History for KPIH - January, 2013

Change the Weather History Date:

Saturday, January 12, 2013

  Actual Average Record
Temperature  
Mean Temperature 0 °F 24 °F  
Max Temperature 13 °F 32 °F 55 °F (1953)
Min Temperature -13 °F 16 °F -22 °F (1963)
Degree Days  
Heating Degree Days 65 41  
Month to date heating degree days 633 492  
Since 1 July heating degree days 3190 3477  
Cooling Degree Days 0 0  
Month to date cooling degree days 0 0  
Year to date cooling degree days 0 0  
Moisture  
Dew Point -3 °F    
Average Humidity 81    
Maximum Humidity 95    
Minimum Humidity 66    
Precipitation  
Precipitation 0.03 in 0.03 in 0.52 in (1980)
Month to date precipitation 0.21 0.43  
Year to date precipitation 0.21 0.43  
Snow  
Snow 0.50 in - - ()
Month to date snowfall 3.2  
Since 1 July snowfall 22.8  
Snow Depth 5.00 in    
Sea Level Pressure  
Sea Level Pressure 30.21 in    
Wind  
Wind Speed 3 mph (WSW)    
Max Wind Speed 9 mph    
Max Gust Speed 13 mph    
Visibility 4 miles    
Events Fog , Snow    
T = Trace of Precipitation, MM = Missing Value Source: NWS Daily Summary

Daily Weather History Graph

Daily Weather History Graph

Search for Another Location

Airport or City:

Trip Planner

Search our weather history database for the weather conditions in past years. The results will help you decide how hot, cold, wet, or windy it might be!

Date:

Astronomy

Jan. 12, 2013 Rise Set
Actual Time 7:59 AM MST 5:18 PM MST
Civil Twilight 7:28 AM MST 5:49 PM MST
Nautical Twilight 6:53 AM MST 6:25 PM MST
Astronomical Twilight 6:18 AM MST 6:59 PM MST
Moon 8:18 AM MST (1/12) 6:55 PM MST (1/12)
Length of Visible Light 10h 21m
Length of Day
9h 18m
New Moon, 1% of the Moon is Illuminated
Jan 12
New Moon
Jan 18
First Quarter
Jan 26
Full
Feb 3
Last Quarter
Feb 10
New

Hourly Weather History & Observations

Time (MST) Temp. Windchill Dew Point Humidity Pressure Visibility Wind Dir Wind Speed Gust Speed Precip Events Conditions
12:53 AM 6.1 °F -4.3 °F 1.0 °F 80% 30.19 in 10.0 mi NE 5.8 mph - N/A   Overcast
1:53 AM 1.9 °F -5.6 °F -0.9 °F 88% 30.21 in 10.0 mi SSE 3.5 mph - N/A   Partly Cloudy
2:53 AM -5.1 °F -13.6 °F -8.0 °F 87% 30.25 in 10.0 mi SSE 3.5 mph - N/A   Clear
3:44 AM -4.0 °F -16.3 °F -5.8 °F 92% 30.01 in 2.5 mi WNW 5.8 mph - N/A   Scattered Clouds
3:53 AM -4.0 °F -14.6 °F -8.0 °F 83% 30.24 in 3.0 mi WNW 4.6 mph - N/A   Mostly Cloudy
4:01 AM -4.0 °F -12.4 °F -7.6 °F 85% 30.01 in 0.8 mi NNW 3.5 mph - N/A   Mist
4:12 AM -5.8 °F - -5.8 °F 100% 30.01 in 0.2 mi Calm Calm - N/A Fog Light Freezing Fog
4:28 AM -5.8 °F - -7.6 °F 92% 30.01 in 0.5 mi Calm Calm - N/A Fog Light Freezing Fog
4:39 AM -7.6 °F - -9.4 °F 92% 30.02 in 0.5 mi Calm Calm - N/A Fog Light Freezing Fog
4:53 AM -9.0 °F -20.4 °F -11.0 °F 91% 30.27 in 0.5 mi South 4.6 mph - N/A Fog Light Freezing Fog
5:09 AM -7.6 °F -16.5 °F -9.4 °F 92% 30.02 in 0.2 mi South 3.5 mph - N/A Fog Light Freezing Fog
5:28 AM -5.8 °F -14.5 °F -7.6 °F 92% 30.02 in 0.5 mi SSE 3.5 mph - N/A Fog Light Freezing Fog
5:39 AM -7.6 °F -18.8 °F -9.4 °F 92% 30.02 in 1.0 mi South 4.6 mph - N/A   Mist
5:44 AM -7.6 °F -18.8 °F -9.4 °F 92% 30.02 in 2.0 mi SSE 4.6 mph - N/A   Partly Cloudy
5:53 AM -7.1 °F - -9.0 °F 91% 30.27 in 10.0 mi Calm Calm - N/A   Clear
6:53 AM -5.1 °F -20.4 °F -9.0 °F 83% 30.29 in 5.0 mi East 8.1 mph - N/A   Partly Cloudy
7:53 AM -11.9 °F -23.8 °F -15.0 °F 86% 30.34 in 4.0 mi NW 4.6 mph - N/A   Scattered Clouds
8:04 AM -11.2 °F -23.0 °F -13.0 °F 92% 30.07 in 0.2 mi WNW 4.6 mph - N/A Fog Light Freezing Fog
8:45 AM -7.6 °F - -9.4 °F 92% 30.07 in 1.0 mi Calm Calm - N/A   Mist
8:53 AM -9.0 °F - -11.9 °F 87% 30.35 in 5.0 mi Calm Calm - N/A   Partly Cloudy
9:53 AM -6.0 °F - -7.1 °F 95% 30.35 in 5.0 mi Calm Calm - N/A   Partly Cloudy
10:53 AM -0.0 °F - -2.0 °F 91% 30.35 in 5.0 mi Calm Calm - 0.00 in   Partly Cloudy
11:53 AM 5.0 °F -4.1 °F -0.0 °F 80% 30.32 in 10.0 mi West 4.6 mph - N/A   Scattered Clouds
12:53 PM 8.1 °F - 1.0 °F 73% 30.30 in 10.0 mi Calm Calm - N/A   Scattered Clouds
1:53 PM 10.0 °F - 1.9 °F 70% 30.30 in 10.0 mi Calm Calm - N/A   Scattered Clouds
2:53 PM 9.0 °F 0.6 °F 3.0 °F 77% 30.34 in 10.0 mi WNW 4.6 mph - N/A   Mostly Cloudy
3:53 PM 10.0 °F 1.8 °F 3.9 °F 76% 30.34 in 9.0 mi West 4.6 mph - N/A   Overcast
4:53 PM 10.0 °F -1.9 °F 3.9 °F 76% 30.35 in 10.0 mi WSW 8.1 mph - 0.00 in   Overcast
5:53 PM 8.6 °F -1.3 °F 3.2 °F 79% 30.09 in 10.0 mi WSW 5.8 mph - N/A   Overcast
6:53 PM 8.1 °F - 5.0 °F 87% 30.34 in 5.0 mi Calm Calm - 0.00 in Snow Light Snow
7:53 PM 8.1 °F - 3.9 °F 83% 30.38 in 3.0 mi Calm Calm - 0.00 in Snow Light Snow
8:53 PM 7.0 °F -3.3 °F 3.0 °F 84% 30.38 in 3.0 mi North 5.8 mph - 0.00 in Snow Light Snow
8:55 PM 6.8 °F -4.8 °F 3.2 °F 85% 30.09 in 1.0 mi North 6.9 mph - 0.00 in Snow Light Snow
9:53 PM 6.1 °F - 1.0 °F 80% 30.38 in 2.5 mi Calm Calm - 0.02 in Snow Light Snow
10:01 PM 5.0 °F - 1.4 °F 85% 30.10 in 2.5 mi Calm Calm - 0.00 in Snow Light Snow
10:35 PM 5.0 °F - 1.4 °F 85% 30.10 in 3.0 mi Calm Calm - 0.00 in Snow Light Snow
10:51 PM 5.0 °F - 1.4 °F 85% 30.10 in 2.5 mi Calm Calm - 0.00 in Snow Light Snow
10:53 PM 5.0 °F - 1.0 °F 84% 30.36 in 2.5 mi Calm Calm - 0.00 in Snow Light Snow
11:01 PM 5.0 °F - 1.4 °F 85% 30.11 in 2.0 mi Calm Calm - 0.00 in Snow Light Snow
11:13 PM 5.0 °F - 1.4 °F 85% 30.11 in 2.5 mi Calm Calm - 0.00 in Snow Light Snow
11:40 PM 5.0 °F - -0.4 °F 78% 30.11 in 1.8 mi Calm Calm - 0.01 in Snow Light Snow
11:53 PM 3.9 °F - 1.0 °F 88% 30.35 in 2.5 mi Calm Calm - 0.01 in Snow Light Snow